KH2PM Weather Reports


time (UTC)temp
F
wind
direction
speed
knots
gust
knots
rain 1hr
in
rain 24hr
in
rain mn
in
humidity
%
barometer
mb
20260901053004 77 146 0.9 1.7 0.00 0.00 0.00 86 1018.6
20260901052510 77 141 0.9 2.6 0.00 0.00 0.00 85 1018.7
20260901051504 77 141 1.7 2.6 0.00 0.00 0.00 85 1018.6
20260901051004 77 141 0.9 2.6 0.00 0.00 0.00 84 1018.6
20260901050504 77 144 1.7 2.6 0.00 0.00 0.00 84 1018.5
20260901050003 77 156 0.9 2.6 0.00 0.00 0.00 84 1018.5
20260901045005 77 145 0.0 0.9 0.00 0.00 0.00 83 1018.6
20260901044506 77 145 0.0 0.0 0.00 0.00 0.00 83 1018.5
20260901044004 77 145 0.9 1.7 0.00 0.00 0.00 83 1018.4
20260901042503 78 130 0.9 0.9 0.00 0.00 0.00 82 1018.2
20260901042004 77 127 0.9 4.3 0.00 0.00 0.00 82 1018.1
20260901041504 77 137 1.7 2.6 0.00 0.00 0.00 82 1018.1
20260901041006 77 134 0.9 2.6 0.00 0.00 0.00 81 1018.2
20260901040503 77 149 0.0 0.9 0.00 0.00 0.00 82 1018.2
20260901040004 77 149 0.9 2.6 0.00 0.00 0.00 82 1018.2
20260901034504 77 119 0.9 1.7 0.00 0.00 0.00 83 1018.2
20260901034003 77 137 0.9 1.7 0.00 0.00 0.00 83 1018.3
20260901033504 77 155 0.0 0.0 0.00 0.00 0.00 83 1018.3
20260901033005 77 155 0.0 0.0 0.00 0.00 0.00 83 1018.2
20260901032504 77 155 0.0 0.9 0.00 0.00 0.00 83 1018.2
20260901032004 77 155 0.0 0.0 0.00 0.00 0.00 83 1018.1
20260901031505 77 155 0.0 0.0 0.00 0.00 0.00 83 1018.1
20260901031004 77 155 0.0 0.0 0.00 0.00 0.00 83 1018.1
20260901030504 77 155 0.0 0.0 0.00 0.00 0.00 82 1018.1
20260901030004 77 155 0.0 0.0 0.00 0.00 0.00 82 1018.2
20260901025504 77 155 0.0 0.0 0.00 0.00 0.00 82 1018.2
20260901025004 77 155 0.0 0.0 0.00 0.00 0.00 82 1018.2
20260901024503 77 155 0.0 0.0 0.00 0.00 0.00 82 1018.3
20260901024004 77 155 0.0 0.0 0.00 0.00 0.00 82 1018.2
20260901023504 77 155 0.0 0.0 0.00 0.00 0.00 82 1018.3
20260901022504 78 155 0.0 0.0 0.00 0.00 0.00 82 1018.3
20260901022003 78 155 0.0 0.0 0.00 0.00 0.00 82 1018.2
20260901021505 78 155 0.0 0.0 0.00 0.00 0.00 82 1018.2
20260901020503 78 155 0.0 0.0 0.00 0.00 0.00 82 1018.2
20260901020004 78 155 0.0 0.0 0.00 0.00 0.00 82 1018.3
20260901015504 78 155 0.0 0.0 0.00 0.00 0.00 82 1018.3
20260901015004 78 155 0.0 0.0 0.00 0.00 0.00 82 1018.2
20260901014504 78 155 0.0 0.0 0.00 0.00 0.00 82 1018.1
20260901014004 79 155 0.0 0.0 0.00 0.00 0.00 82 1018.0
20260901013504 79 155 0.0 0.0 0.00 0.00 0.00 82 1018.0
20260901013005 79 155 0.0 0.0 0.00 0.00 0.00 82 1018.0
20260901012504 79 155 0.0 0.0 0.00 0.00 0.00 82 1017.9
20260901012004 79 155 0.0 0.0 0.00 0.00 0.00 81 1017.8
20260901011504 79 155 0.0 0.0 0.00 0.00 0.00 80 1017.8
20260901011004 79 155 0.0 0.0 0.00 0.00 0.00 79 1017.7
20260901010504 79 155 0.0 0.0 0.00 0.00 0.00 80 1017.7
20260901005503 80 155 0.0 0.0 0.00 0.00 0.00 77 1017.5
20260901005004 80 155 0.0 0.0 0.00 0.00 0.00 78 1017.4
20260901004504 80 155 0.0 0.0 0.00 0.00 0.00 76 1017.4
20260901004004 80 155 0.0 0.0 0.00 0.00 0.00 76 1017.4
20260901003504 80 155 0.9 1.7 0.00 0.00 0.00 76 1017.4
20260901002504 81 155 0.0 0.0 0.00 0.00 0.00 75 1017.4
20260901002004 81 155 0.0 0.0 0.00 0.00 0.00 75 1017.3
20260901001504 81 155 0.0 0.0 0.00 0.00 0.00 73 1017.3
20260901001003 82 155 0.0 0.0 0.00 0.00 0.00 73 1017.2
20260901000503 82 155 0.0 0.0 0.00 0.00 0.00 70 1017.2
20260901000003 83 155 0.0 0.0 0.00 0.00 0.00 70 1017.1
20260831235503 84 155 0.0 1.7 0.00 0.00 0.00 70 1017.2
20260831234504 85 303 0.0 0.0 0.00 0.00 0.00 69 1017.2
20260831234004 86 303 0.0 0.0 0.00 0.00 0.00 62 1017.2
20260831233504 86 303 0.0 0.0 0.00 0.00 0.00 60 1017.2
20260831233004 87 303 0.0 0.0 0.00 0.00 0.00 61 1017.2
20260831232504 87 303 0.0 0.0 0.00 0.00 0.00 59 1017.2
20260831232004 88 303 0.0 0.0 0.00 0.00 0.00 59 1017.2
20260831231505 88 303 0.0 0.0 0.00 0.00 0.00 58 1017.1
20260831231004 89 303 0.0 0.0 0.00 0.00 0.00 58 1017.1
20260831230503 89 303 0.0 0.0 0.00 0.00 0.00 55 1017.0
20260831230004 89 303 0.0 0.0 0.00 0.00 0.00 56 1017.0
20260831225004 91 303 0.0 0.0 0.00 0.00 0.00 55 1017.1
20260831224504 91 303 0.0 0.0 0.00 0.00 0.00 54 1017.1
20260831224003 92 303 0.0 0.0 0.00 0.00 0.00 52 1017.1
20260831223504 93 303 0.0 0.0 0.00 0.00 0.00 51 1017.1
20260831223003 93 319 0.0 0.0 0.00 0.00 0.00 50 1017.0
20260831222504 94 237 0.0 0.9 0.00 0.00 0.00 48 1017.1
20260831222004 95 143 0.0 0.0 0.00 0.00 0.00 48 1017.0
20260831221504 95 111 0.0 0.0 0.00 0.00 0.00 48 1017.0
20260831221003 96 239 0.0 0.0 0.00 0.00 0.00 47 1017.0
20260831220503 96 224 0.0 0.0 0.00 0.00 0.00 45 1017.1
20260831220003 96 316 0.0 0.0 0.00 0.00 0.00 45 1017.1
20260831215004 97 211 0.0 0.0 0.00 0.00 0.00 47 1017.2
20260831214504 96 211 0.0 0.0 0.00 0.00 0.00 48 1017.2
20260831214004 96 219 0.0 0.0 0.00 0.00 0.00 46 1017.2
20260831213504 96 45 0.0 0.0 0.00 0.00 0.00 44 1017.4
20260831212003 96 277 0.0 0.0 0.00 0.00 0.00 45 1017.4
20260831211503 96 193 0.0 0.0 0.00 0.00 0.00 46 1017.4
20260831210504 96 328 0.0 0.0 0.00 0.00 0.00 45 1017.4
20260831210004 96 20 0.0 0.0 0.00 0.00 0.00 46 1017.5
20260831205504 96 126 0.0 0.0 0.00 0.00 0.00 46 1017.5
20260831204504 96 330 0.0 0.0 0.00 0.00 0.00 48 1017.6
20260831203503 96 257 0.0 0.0 0.00 0.00 0.00 48 1017.5
20260831203004 96 220 0.0 0.9 0.00 0.00 0.00 49 1017.7
20260831202504 96 227 0.0 0.0 0.00 0.00 0.00 48 1017.8
20260831201503 95 196 0.0 0.9 0.00 0.00 0.00 48 1017.8
20260831201004 96 310 0.0 1.7 0.00 0.00 0.00 47 1017.8
20260831200504 96 343 0.9 2.6 0.00 0.00 0.00 47 1017.7
20260831200004 96 323 0.0 1.7 0.00 0.00 0.00 47 1017.8
20260831195504 95 315 0.9 2.6 0.00 0.00 0.00 50 1017.8
20260831195003 95 329 0.0 0.0 0.00 0.00 0.00 49 1017.8
20260831194503 94 192 0.0 0.9 0.00 0.00 0.00 52 1017.9
20260831194004 95 154 0.9 4.3 0.00 0.00 0.00 50 1017.9
20260831193504 95 94 0.0 0.0 0.00 0.00 0.00 49 1018.0
20260831193004 95 242 0.0 0.9 0.00 0.00 0.00 49 1018.1
20260831192504 95 27 0.0 0.0 0.00 0.00 0.00 51 1018.1
20260831192003 94 238 0.0 0.0 0.00 0.00 0.00 51 1018.2
20260831191503 94 45 0.0 2.6 0.00 0.00 0.00 50 1018.2
20260831191004 94 36 1.7 4.3 0.00 0.00 0.00 51 1018.4
20260831190503 94 334 2.6 2.6 0.00 0.00 0.00 50 1018.5
20260831190004 94 193 0.9 2.6 0.00 0.00 0.00 52 1018.5
20260831185504 94 286 1.7 4.3 0.00 0.00 0.00 51 1018.6
20260831185003 93 0 0.0 0.9 0.00 0.00 0.00 50 1018.6
20260831184503 93 1 0.0 0.9 0.00 0.00 0.00 54 1018.6
20260831184004 93 336 0.0 0.9 0.00 0.00 0.00 55 1018.7
20260831183504 93 245 0.0 1.7 0.00 0.00 0.00 52 1018.7
20260831182504 93 318 0.0 1.7 0.00 0.00 0.00 54 1018.8
20260831182003 92 307 0.0 2.6 0.00 0.00 0.00 54 1018.8
20260831181504 92 340 0.0 2.6 0.00 0.00 0.00 55 1018.8
20260831181003 92 359 0.0 0.9 0.00 0.00 0.00 56 1018.8
20260831180504 92 114 0.0 0.0 0.00 0.00 0.00 55 1018.9
20260831180004 92 116 0.0 2.6 0.00 0.00 0.00 58 1018.9
20260831175504 92 287 0.9 2.6 0.00 0.00 0.00 55 1019.0
20260831175003 92 4 0.0 0.9 0.00 0.00 0.00 55 1019.0
20260831173503 91 271 0.0 1.7 0.00 0.00 0.00 59 1019.1
20260831173004 91 123 1.7 2.6 0.00 0.00 0.00 58 1019.1
20260831172504 91 143 1.7 2.6 0.00 0.00 0.00 59 1019.1
20260831171503 91 291 0.0 0.9 0.00 0.00 0.00 61 1019.1
20260831170504 91 57 1.7 2.6 0.00 0.00 0.00 61 1019.2
20260831170004 91 282 0.0 1.7 0.00 0.00 0.00 61 1019.2
20260831165504 91 287 0.0 0.0 0.00 0.00 0.00 60 1019.2
20260831165003 91 291 0.0 2.6 0.00 0.00 0.00 62 1019.2
20260831164504 90 130 0.9 2.6 0.00 0.00 0.00 62 1019.3
20260831164004 90 119 0.0 2.6 0.00 0.00 0.00 60 1019.3
20260831163504 90 57 0.9 2.6 0.00 0.00 0.00 62 1019.4
20260831163003 91 284 0.0 0.9 0.00 0.00 0.00 59 1019.6
20260831162004 90 167 0.0 2.6 0.00 0.00 0.00 64 1019.7
20260831161004 89 109 0.9 2.6 0.00 0.00 0.00 65 1019.6
20260831160503 88 350 0.0 2.6 0.00 0.00 0.00 67 1019.6
20260831155504 88 326 0.9 2.6 0.00 0.00 0.00 67 1019.8
20260831155003 88 54 0.0 0.0 0.00 0.00 0.00 68 1019.8
20260831154504 87 315 0.0 2.6 0.00 0.00 0.00 68 1019.8
20260831153504 88 354 0.0 2.6 0.00 0.00 0.00 67 1020.0
20260831153004 88 272 0.0 0.0 0.00 0.00 0.00 68 1020.1
20260831152504 87 257 0.0 2.6 0.00 0.00 0.00 68 1020.1
20260831152004 87 350 1.7 4.3 0.00 0.00 0.00 69 1020.1
20260831151503 87 332 1.7 5.2 0.00 0.00 0.00 69 1020.1
20260831151004 87 182 0.9 2.6 0.00 0.00 0.00 72 1020.1
20260831150504 86 270 0.0 2.6 0.00 0.00 0.00 73 1020.2
20260831150004 86 1 0.9 5.2 0.00 0.00 0.00 71 1020.1
20260831145504 86 317 1.7 5.2 0.00 0.00 0.00 71 1020.1
20260831145004 86 217 1.7 5.2 0.00 0.00 0.00 71 1020.1
20260831144505 86 325 2.6 6.1 0.00 0.00 0.00 71 1020.1
20260831144003 86 322 0.9 2.6 0.00 0.00 0.00 73 1020.1
20260831143504 85 320 0.9 2.6 0.00 0.00 0.00 74 1020.0
20260831143004 85 318 0.9 2.6 0.00 0.00 0.00 74 1020.0
20260831142003 85 254 0.9 2.6 0.00 0.00 0.00 76 1019.8
20260831141504 84 226 0.9 2.6 0.00 0.00 0.00 76 1019.8
20260831141004 84 270 0.9 2.6 0.00 0.00 0.00 76 1019.8
20260831140504 84 284 0.9 2.6 0.00 0.00 0.00 78 1019.8
20260831140004 84 312 1.7 2.6 0.00 0.00 0.00 77 1019.7
20260831135503 84 17 1.7 2.6 0.00 0.00 0.00 78 1019.7
20260831135004 83 117 0.9 1.7 0.00 0.00 0.00 80 1019.7
20260831134004 82 350 1.7 2.6 0.00 0.00 0.00 82 1019.6
20260831133504 82 282 1.7 2.6 0.00 0.00 0.00 83 1019.6
20260831132504 81 337 0.9 2.6 0.00 0.00 0.00 85 1019.7
20260831132005 80 327 0.9 2.6 0.00 0.00 0.00 86 1019.6
20260831131504 80 320 0.9 2.6 0.00 0.00 0.00 88 1019.7
20260831131004 79 312 0.9 2.6 0.00 0.00 0.00 88 1019.7
20260831130004 79 333 1.7 2.6 0.00 0.00 0.00 90 1019.8
20260831125004 78 334 0.9 2.6 0.00 0.00 0.00 91 1019.8
20260831124504 77 344 0.9 1.7 0.00 0.00 0.00 92 1019.9
20260831124003 77 332 0.0 0.9 0.00 0.00 0.00 92 1019.8
20260831123503 76 268 0.0 0.9 0.00 0.00 0.00 94 1019.8
20260831123004 76 312 0.0 0.9 0.00 0.00 0.00 94 1019.8
20260831122504 76 299 0.0 0.9 0.00 0.00 0.00 96 1019.8
20260831122004 75 252 0.0 0.0 0.00 0.00 0.00 97 1019.8
20260831121503 74 15 0.0 0.0 0.00 0.00 0.00 96 1019.9
20260831121004 74 104 0.0 0.0 0.00 0.00 0.00 97 1019.9
20260831120504 74 115 0.0 0.0 0.00 0.00 0.00 97 1019.8
20260831120004 73 131 0.0 0.0 0.00 0.00 0.00 97 1019.8
20260831115004 72 161 0.0 0.0 0.00 0.00 0.00 96 1019.7
20260831114503 72 161 0.0 0.0 0.00 0.00 0.00 97 1019.6
20260831114004 71 161 0.0 0.0 0.00 0.00 0.00 96 1019.5
20260831113504 71 161 0.0 0.0 0.00 0.00 0.00 96 1019.5
20260831113004 70 161 0.0 0.0 0.00 0.00 0.00 96 1019.5
20260831112504 70 161 0.0 0.0 0.00 0.00 0.00 96 1019.6
20260831112004 70 161 0.0 0.0 0.00 0.00 0.00 95 1019.7
20260831111504 70 161 0.0 0.0 0.00 0.00 0.00 96 1019.8
20260831111004 70 161 0.0 0.0 0.00 0.00 0.00 96 1019.8
20260831110503 70 161 0.0 0.0 0.00 0.00 0.00 96 1019.6
20260831110004 70 161 0.0 0.0 0.00 0.00 0.00 96 1019.6
20260831105505 70 161 0.0 0.0 0.00 0.00 0.00 96 1019.5
20260831105004 69 161 0.0 0.0 0.00 0.00 0.00 95 1019.4
20260831104504 70 161 0.0 0.0 0.00 0.00 0.00 95 1019.4
20260831104003 70 161 0.0 0.0 0.00 0.00 0.00 95 1019.5
20260831103503 70 161 0.0 0.0 0.00 0.00 0.00 95 1019.5
20260831103004 70 161 0.0 0.0 0.00 0.00 0.00 96 1019.4
20260831102504 70 161 0.0 0.0 0.00 0.00 0.00 95 1019.4
20260831101503 70 161 0.0 0.0 0.00 0.00 0.00 95 1019.4
20260831101003 70 161 0.0 0.0 0.00 0.00 0.00 96 1019.4
20260831100504 70 161 0.0 0.0 0.00 0.00 0.00 96 1019.3
20260831100004 70 161 0.0 0.0 0.00 0.00 0.00 96 1019.2
20260831095504 70 161 0.0 0.0 0.00 0.00 0.00 96 1019.1
20260831095003 70 161 0.0 0.0 0.00 0.00 0.00 95 1019.2
20260831093504 70 161 0.0 0.0 0.00 0.00 0.00 95 1019.2
20260831093004 70 161 0.0 0.0 0.00 0.00 0.00 95 1019.1
20260831092504 70 161 0.0 0.0 0.00 0.00 0.00 95 1019.2
20260831092004 70 161 0.0 0.0 0.00 0.00 0.00 95 1019.3
20260831090504 70 161 0.0 0.0 0.00 0.00 0.00 95 1019.1
20260831090004 70 161 0.0 0.0 0.00 0.00 0.00 95 1019.2
20260831085504 70 161 0.0 0.0 0.00 0.00 0.00 95 1019.2
20260831085003 70 161 0.0 0.0 0.00 0.00 0.00 95 1019.2
20260831084504 70 161 0.0 0.0 0.00 0.00 0.00 95 1019.2
20260831084004 70 161 0.0 0.0 0.00 0.00 0.00 95 1019.1
20260831083503 70 161 0.0 0.0 0.00 0.00 0.00 95 1019.2
20260831083004 70 161 0.0 0.0 0.00 0.00 0.00 95 1019.1
20260831082504 70 161 0.0 0.0 0.00 0.00 0.00 95 1019.1
20260831082003 71 161 0.0 0.0 0.00 0.00 0.00 95 1019.1
20260831081503 71 161 0.0 0.0 0.00 0.00 0.00 95 1019.2
20260831081004 71 161 0.0 0.0 0.00 0.00 0.00 95 1019.2
20260831080504 71 161 0.0 0.0 0.00 0.00 0.00 95 1019.1
20260831080004 71 161 0.0 0.0 0.00 0.00 0.00 95 1019.1
20260831075504 71 161 0.0 0.0 0.00 0.00 0.00 95 1019.1
20260831075004 71 161 0.0 0.0 0.00 0.00 0.00 95 1019.1
20260831074504 71 161 0.0 0.0 0.00 0.00 0.00 95 1019.1
20260831074004 71 161 0.0 0.0 0.00 0.00 0.00 95 1019.3
20260831073504 71 161 0.0 0.0 0.00 0.00 0.00 95 1019.3
20260831073004 71 161 0.0 0.0 0.00 0.00 0.00 95 1019.3
20260831072504 71 161 0.0 0.0 0.00 0.00 0.00 95 1019.4
20260831072004 71 161 0.0 0.0 0.00 0.00 0.00 95 1019.3
20260831071504 71 161 0.0 0.0 0.00 0.00 0.00 95 1019.3
20260831071004 71 161 0.0 0.0 0.00 0.00 0.00 95 1019.3
20260831070504 71 161 0.0 0.0 0.00 0.00 0.00 95 1019.4
20260831070003 71 161 0.0 0.0 0.00 0.00 0.00 95 1019.4
20260831065503 71 161 0.0 0.0 0.00 0.00 0.00 94 1019.5
20260831064504 72 161 0.0 0.0 0.00 0.00 0.00 95 1019.5
20260831063504 71 161 0.0 0.0 0.00 0.00 0.00 95 1019.6
20260831062504 71 161 0.0 0.0 0.00 0.00 0.00 95 1019.5
20260831062004 71 161 0.0 0.0 0.00 0.00 0.00 94 1019.5
20260831061504 71 161 0.0 0.0 0.00 0.00 0.00 94 1019.5
20260831061003 71 161 0.0 0.0 0.00 0.00 0.00 94 1019.5
20260831060503 71 161 0.0 0.0 0.00 0.00 0.00 95 1019.6
20260831060003 71 161 0.0 0.0 0.00 0.00 0.00 95 1019.7
20260831055503 71 161 0.0 0.0 0.00 0.00 0.00 94 1019.6